Grand Marais, MN

5:54 AM CST on November 12, 2019 (GMT -0600)
Grand Marais

Weather History for KGNA - July, 2019

Change the Weather History Date:

Tuesday, July 16, 2019

  Actual Average (WUND) Record (WUND)
Temperature  
Mean Temperature 64 °F -  
Max Temperature 75 °F - - (-1)
Min Temperature 55 °F - - (-1)
Degree Days  
Heating Degree Days 1    
Growing Degree Days 14 (Base 50)    
Moisture  
Dew Point 59 °F    
Average Humidity 90    
Maximum Humidity 100    
Minimum Humidity 76    
Precipitation  
Precipitation 0.00 in - - ()
Sea Level Pressure  
Sea Level Pressure 29.80 in    
Wind  
Wind Speed 5 mph (WSW)    
Max Wind Speed 14 mph    
Max Gust Speed -    
Averages and records for this station are not official NWS values.
T = Trace of Precipitation, MM = Missing Value Source: NWS Daily Summary

Daily Weather History Graph

Daily Weather History Graph

Search for Another Location

Airport or City:

Astronomy

Jul. 16, 2019 Rise Set
Actual Time 5:19 AM CDT 8:54 PM CDT
Civil Twilight 4:40 AM CDT 9:33 PM CDT
Nautical Twilight 3:48 AM CDT 10:25 PM CDT
Astronomical Twilight 2:36 AM CDT 11:35 PM CDT
Moon 9:01 PM CDT (7/16) 4:56 AM CDT (7/16)
Length of Visible Light 16h 53m
Length of Day
15h 35m
Full, 100% of the Moon is Illuminated
Jul 16
Full
Jul 16
Full
Jul 24
Last Quarter
Jul 31
New
Aug 7
First Quarter

Hourly Weather History & Observations

Time (CDT) Temp. Dew Point Humidity Pressure Visibility Wind Dir Wind Speed Gust Speed Precip Events Conditions
12:56 AM 60.1 °F 60.1 °F 100% 29.72 in - Calm Calm - N/A   Unknown
1:56 AM 61.0 °F 61.0 °F 100% 29.73 in - Calm Calm - N/A   Unknown
2:56 AM 60.1 °F 60.1 °F 100% 29.72 in - WSW 3.5 mph - N/A   Unknown
3:56 AM 60.1 °F 60.1 °F 100% 29.71 in - WSW 5.8 mph - N/A   Unknown
4:56 AM 57.9 °F 57.9 °F 100% 29.72 in - WSW 9.2 mph - N/A   Unknown
6:56 AM 70.0 °F 66.0 °F 87% 29.73 in - Variable 4.6 mph - N/A   Unknown
7:56 AM 73.9 °F 66.0 °F 76% 29.76 in - Variable 3.5 mph - N/A   Unknown
8:56 AM 66.0 °F 61.0 °F 84% 29.78 in - WSW 3.5 mph - N/A   Unknown
9:56 AM 66.9 °F 60.1 °F 79% 29.79 in - SW 6.9 mph - N/A   Unknown
10:56 AM 64.9 °F 57.9 °F 78% 29.81 in - WSW 8.1 mph - N/A   Unknown
11:56 AM 61.0 °F 57.0 °F 87% 29.81 in - WSW 12.7 mph - N/A   Unknown
12:56 PM 63.0 °F 57.0 °F 81% 29.83 in - WSW 11.5 mph - N/A   Unknown
1:56 PM 62.1 °F 57.0 °F 84% 29.83 in - WSW 13.8 mph - N/A   Unknown
2:56 PM 62.1 °F 57.0 °F 84% 29.83 in - WSW 12.7 mph - N/A   Unknown
3:56 PM 63.0 °F 57.9 °F 84% 29.83 in - WSW 13.8 mph - N/A   Unknown
4:56 PM 61.0 °F 57.0 °F 87% 29.83 in - WSW 13.8 mph - N/A   Unknown
5:56 PM 61.0 °F 57.9 °F 90% 29.83 in - WSW 5.8 mph - N/A   Unknown
6:56 PM 63.0 °F 59.0 °F 87% 29.83 in - WSW 8.1 mph - N/A   Unknown
7:56 PM 61.0 °F 59.0 °F 93% 29.84 in - WSW 5.8 mph - N/A   Unknown
8:56 PM 60.1 °F 59.0 °F 96% 29.86 in - SW 5.8 mph - N/A   Unknown
9:56 PM 57.0 °F 55.9 °F 96% 29.88 in - Calm Calm - N/A   Unknown
10:56 PM 55.0 °F 55.0 °F 100% 29.89 in - Calm Calm - N/A   Unknown
11:56 PM 57.0 °F 57.0 °F 100% 29.89 in - Calm Calm - N/A   Unknown